Location: Betz
(49.1556°N, 2.9558°E)
Time: 00:47:43
(UTC+00:00)

NOSS 3-4 (C) - Pass Details

Date: 18 September 2019
Orbit: 913 x 1299 km, 63.4° (Epoch: 17 October)

Event Time Altitude Azimuth Distance (km) Brightness Sun altitude
Rises 19:48:33 0° 316° (NW) 3,839 7.9 -18.6°
Reaches altitude 10° 19:51:09 10° 312° (NW) 2,935 7.1 -19.0°
Maximum altitude 19:57:56 54° 238° (WSW) 1,386 4.4 -20.0°
Enters shadow 20:03:39 18° 167° (SSE) 2,631 5.4 -20.8°
